Regional Weather Roundup
Issued by NWS

Home | Current Version | Previous Version | Text Only | Print | Product List | Glossary Off
Versions: 1 2 3 4 5 6 7 8 9 10 11 12 13 14 15 16 17 18 19 20 21 22 23 24 25 26 27 28 29 30 31 32 33 34 35 36 37 38 39 40 41 42 43 44 45 46 47 48 49 50

000
ASUS43 KOAX 251202
RWRNE

WEATHER ROUNDUP FOR NEBRASKA
NATIONAL WEATHER SERVICE OMAHA NE
700 AM CDT SUN JUN 25 2017

NOTES: SATELLITE DATA IS BEING USED TO AUGMENT CLOUD COVER ABOVE
       12000 FEET.
       "FAIR" INDICATES FEW OR NO CLOUDS BELOW 12,000 FEET WITH NO
       SIGNIFICANT WEATHER AND/OR OBSTRUCTIONS TO VISIBILITY.

  * THESE STATIONS DO NOT REPORT WEATHER SUCH AS RAIN...SNOW OR FOG.

NEZ001>004-019>022-054>056-251300-
NEBRASKA PANHANDLE

CITY           SKY/WX    TMP DP  RH WIND       PRES   REMARKS
SCOTTSBLUFF    LGT RAIN  54  39  57 NE7       30.38R
6HR MIN TEMP:  54; 6HR MAX TEMP:  60; 6HR PCP: TRACE;

ALLIANCE       CLOUDY    53  39  59 S3        30.36S
6HR MIN TEMP:  51; 6HR MAX TEMP:  56;

CHADRON        CLOUDY    50  41  71 N3        30.35F
6HR MIN TEMP:  49; 6HR MAX TEMP:  59;

GORDON         FAIR      50  39  66 CALM      30.37F
6HR MIN TEMP:  47; 6HR MAX TEMP:  52;

KIMBALL        CLOUDY    49  38  65 E9        30.38F
SIDNEY         CLOUDY    51  36  56 E8        30.39R
6HR MIN TEMP:  44; 6HR MAX TEMP:  54;

$$

NEZ057>060-069>072-079>082-251300-
SOUTHWEST NEBRASKA

CITY           SKY/WX    TMP DP  RH WIND       PRES   REMARKS
NORTH PLATTE   CLOUDY    55  41  59 NE6       30.37S
6HR MIN TEMP:  44; 6HR MAX TEMP:  57; 6HR PCP: TRACE;

IMPERIAL       CLOUDY    54  42  64 NE8       30.35R
6HR MIN TEMP:  49; 6HR MAX TEMP:  55;

LEXINGTON      CLOUDY    57  42  57 NE3       30.36S
MCCOOK         CLOUDY    54  44  69 E8        30.33F
6HR MIN TEMP:  50; 6HR MAX TEMP:  58;

OGALLALA       CLOUDY    58  35  42 NE10      30.37R
$$

NEZ005>010-023>029-035>040-094-251300-
NORTH CENTRAL NEBRASKA

CITY           SKY/WX    TMP DP  RH WIND       PRES   REMARKS
VALENTINE      MOCLDY    47  35  63 W3        30.37S
6HR MIN TEMP:  42; 6HR MAX TEMP:  54;

AINSWORTH      MOCLDY    46  40  78 CALM      30.37S
BROKEN BOW     MOCLDY    53  43  68 SW6       30.37R
6HR MIN TEMP:  51; 6HR MAX TEMP:  56;

O`NEILL        CLEAR     46  43  87 W5        30.35S
ORD            CLOUDY    50  41  71 N6        30.35R
6HR MIN TEMP:  47; 6HR MAX TEMP:  51;

THEDFORD       CLOUDY    50  38  64 SW5       30.38R
$$

NEZ041-046>049-061>064-073>077-083>087-251300-
SOUTH CENTRAL NEBRASKA

CITY           SKY/WX    TMP DP  RH WIND       PRES   REMARKS
GRAND ISLAND   CLOUDY    53  44  71 N6        30.35R
6HR MIN TEMP:  48; 6HR MAX TEMP:  58;

AURORA         CLOUDY    53  45  75 N5        30.34S
HASTINGS       LGT RAIN  55  45  68 N3        30.36R
6HR MIN TEMP:  50; 6HR MAX TEMP:  56; 6HR PCP: TRACE;

HEBRON         CLOUDY    56  47  72 CALM      30.35R
HOLDREGE       LGT RAIN  53  44  72 E3        30.36R
KEARNEY *      CLOUDY    54  45  71 NE5       30.35F
YORK           CLOUDY    54  45  71 CALM      30.34R
$$

NEZ011>018-030>034-042>045-251300-
NORTHEAST NEBRASKA

CITY           SKY/WX    TMP DP  RH WIND       PRES   REMARKS
NORFOLK        CLEAR     49  42  77 NW5       30.32R
6HR MIN TEMP:  44; 6HR MAX TEMP:  53;

ALBION         PTCLDY    50  42  73 NW5       30.34R
BLAIR          CLOUDY    57  43  59 NW7       30.30R
FREMONT        PTSUNNY   56  45  66 NW7       30.31S
TEKAMAH        SUNNY     52  42  69 W9        30.30R
6HR MIN TEMP:  48; 6HR MAX TEMP:  56;

WAYNE          SUNNY     49  46  88 NW5       30.32R
$$

NEZ050>053-065>068-078-088>093-251300-
SOUTHEAST NEBRASKA

CITY           SKY/WX    TMP DP  RH WIND       PRES   REMARKS
LINCOLN        CLEAR     56  43  61 W3        30.33R
6HR MIN TEMP:  49; 6HR MAX TEMP:  56;

OMAHA EPPLEY   CLOUDY    57  46  66 CALM      30.29R
6HR MIN TEMP:  52; 6HR MAX TEMP:  57;

BEATRICE       MOCLDY    53  49  85 NW3       30.32R
FALLS CITY     MOSUNNY   54  48  80 NW6       30.29R
6HR MIN TEMP:  52; 6HR MAX TEMP:  59;

NEBRASKA CITY  MOSUNNY   55  46  73 NW5       30.30R
PLATTSMOUTH    CLOUDY    54  45  72 NW6       30.30R
$$

NEZ044-045-051>053-067-251300-
OMAHA AREA

CITY           SKY/WX    TMP DP  RH WIND       PRES   REMARKS
OMAHA EPPLEY   CLOUDY    57  46  66 CALM      30.29R
6HR MIN TEMP:  52; 6HR MAX TEMP:  57;

BLAIR          CLOUDY    57  43  59 NW7       30.30R
FREMONT        PTSUNNY   56  45  66 NW7       30.31S
MILLARD        CLOUDY    58  46  65 W7        30.30S
OFFUTT AFB     CLOUDY    56  46  69 W6        30.29S
PLATTSMOUTH    CLOUDY    54  45  72 NW6       30.30R
WAHOO          PTSUNNY   55  44  64 NW3       30.31R
$$




USA.gov is the U.S. government's official web portal to all federal, state and local government web resources and services.